Regional Weather Roundup
Issued by NWS Charleston, SC

Home | Current Version | Previous Version | Text Only | Print | Product List | Glossary On
Versions: 1 2 3 4 5 6 7 8 9 10 11 12 13 14 15 16 17 18 19 20 21 22 23 24 25 26 27 28 29 30 31 32 33 34 35 36 37 38 39 40 41 42 43 44 45 46 47 48 49 50
000
ASUS42 KCHS 211112
RWRCHS

REGIONAL WEATHER ROUNDUP
NATIONAL WEATHER SERVICE CHARLESTON SC
700 AM EDT SAT OCT 21 2017

NOTE: "FAIR" INDICATES FEW OR NO CLOUDS BELOW 12,000 FEET WITH NO
SIGNIFICANT WEATHER AND/OR OBSTRUCTIONS TO VISIBILITY.

NOT ALL STATIONS ARE QUALITY CONTROLLED. USE DATA WITH CAUTION...
ESPECIALLY DEWPOINT OBSERVATIONS.

SCZ027-030-031-034>040-042>050-211200-
...SOUTHEAST SOUTH CAROLINA...

CITY           SKY/WX    TMP DP  RH WIND       PRES   REMARKS
N CHARLESTON   PTCLDY    55  55 100 CALM      30.24R
WATERFRONT PRK NOT AVBL
JOHNS ISLAND   FAIR      59  59 100 CALM      30.24R
PINOPOLIS        N/A     64  63  94 NE5       30.16R
MONCKS CORNER  FAIR      52  50  93 CALM      30.25S
SUMMERVILLE    FAIR      50  48  93 CALM      30.26R
BEAUFORT MCAS  CLEAR     58  58 100 MISG      30.24R
BEAUFORT ARPT  FAIR      59  59 100 CALM      30.23S
HILTON HEAD IS CLEAR     61  61 100 N6          N/A
WALTERBORO     SUNNY     45  45 100 CALM      30.26R
ALLENDALE        N/A     48  48 100 CALM        N/A

...SOUTHERN MIDLANDS AND PEE DEE...

CITY           SKY/WX    TMP DP  RH WIND       PRES   REMARKS
GEORGETOWN     FAIR      50  48  93 CALM      30.26S
KINGSTREE      FAIR      46  45  93 CALM      30.27R
ORANGEBURG     PTCLDY    50  48  93 CALM      30.27R
BARNWELL         N/A     48  46  93 CALM      30.27R
AIKEN          FAIR      45  45 100 CALM      30.30R
MANNING        HAZE      50  37  62 MISG      30.27R VSB<1/4
COLUMBIA       PTCLDY    49  47  93 CALM      30.28R
SUMTER         CLEAR     50  47  88 CALM      30.25R
FLORENCE       CLEAR     49  49 100 CALM      30.28R
MYRTLE BEACH   CLEAR     56  53  90 N3        30.28R
N MYRTLE BEACH PTCLDY    53  53 100 N3        30.26R

$$

GAZ063-065-086>088-099>101-113>116-118-119-134>141-150-211200-
...SOUTHEAST GEORGIA...

CITY           SKY/WX    TMP DP  RH WIND       PRES   REMARKS
SAVANNAH ARPT  PTCLDY    58  58 100 N5        30.23R
HUNTER AAF     CLEAR     61  58  91 CALM      30.20R
FORT STEWART   CLEAR     60  57  91 CALM      30.20R
STATESBORO     FOG       51  51 100 CALM      30.24R VSB 1/4
SYLVANIA       FOG       50  50 100 CALM      30.25S VSB 1
CLAXTON        FAIR      51  51  99 CALM      30.23S

...CSRA...CENTRAL AND FAR SOUTHEAST GEORGIA...

CITY           SKY/WX    TMP DP  RH WIND       PRES   REMARKS
THOMSON        CLOUDY    45  43  93 CALM      30.33R
AUGUSTA-BUSH   CLEAR     47  45  93 CALM      30.27R
AUGUSTA-DANIEL CLEAR     56  50  80 CALM      30.27R
SWAINSBORO     FAIR      52  52 100 MISG      30.25R
VIDALIA        CLOUDY    55  55 100 CALM      30.24R
EASTMAN        FAIR      50  50 100 CALM      30.26R
HAZLEHURST     FAIR      62  59  90 E3        30.22R
ALMA           CLOUDY    63  59  87 CALM      30.21R
WAYCROSS       CLOUDY    63  60  91 E3        30.20S
JESUP          NOT AVBL
BAXLEY         FAIR      59  59 100 NE5       30.22R
BRUNSWICK      MOCLDY    64  63  94 CALM      30.21R
SAINT SIMONS   PTCLDY    70  66  87 N7        30.19R

$$

SCZ027-028-034-036>038-045-046-048>050-GAZ119-141-211200-
...LAKE AND SUPPLEMENTAL COASTAL OBSERVATIONS...

STATION/POSITION TIME  TEMP    WIND        PRES    WAVE   SWELL
                       AIR SEA DIR/SP/G            HT/PER HT/PER/DIR
                 (UTC) (F)     (DEG/KT/KT) (MB)    (FT/S) (FT/S/D)
WINYAH BAY       NOT AVBL
LAKE MURRAY      1020   55        CALM     1024.4
ACE BASIN NERRS  0945   59        CALM     1024.0
FORT PULASKI     1042   68 74   20/  6/  7 1023.6R
SAPELO ISLAND    NOT AVBL

$$

ANZ835-935-AMZ111-154-330-350-352-354-370-450-454-472-211200-
...C-MAN AND BUOY OBSERVATIONS...

STATION/POSITION TIME  TEMP    WIND        PRES    WAVE   SWELL
                       AIR SEA DIR/SP/G            HT/PER HT/PER/DIR
                 (UTC) (F)     (DEG/KT/KT) (MB)    (FT/S) (FT/S/D)
BUOY 41004       1050   75 80   40/ 12/ 16 1022.7R   3/ 8   2/100/ 8
BUOY 41008       1050   78 77   90/ 12/ 14 1022.1R   4/ 8   3/100/ 8
FOLLY BEACH CMAN 1000   64     340/  3/  4 1024.0R
CAPERS NEARSHORE 1008   67 73   20/  8/ 12 1023.2R
FRIPP NEARSHORE  1008   74      30/  8/ 10   N/A


STATION/POSITION TIME  TEMP    WIND        PRES    WAVE   SWELL
                       AIR SEA DIR/SP/G            HT/PER HT/PER/DIR
                 (UTC) (F)     (DEG/KT/KT) (MB)    (FT/S) (FT/S/D)
5E ST. MARYS GA  1030      77                N/A     4/ 7
FRYING PAN BUOY  1050   73 76   50/ 10/ 12 1023.7R   3/ 8   3/ 80/ 8
BUOY 41025       1050   73 80   20/ 10/ 12 1024.4R   3/ 8   2/110/ 8
CAPE LOOKOUT NC  1000   66     360/  7/  7 1024.4R
BUOY 41002       1050   76 80   50/ 12/ 16 1022.8R   4/ 8   3/ 80/ 8
BUOY 41010       NOT AVBL
ST AUGUSTINE FL  1100   78 77   80/ 14/ 15 1021.2R


$$



USA.gov is the U.S. government's official web portal to all federal, state and local government web resources and services.